STARLINK-32633 (62306 NORAD) Tracking and Keplerian Element Data

This shows tracking and keplerian element data for the satellite.

Feedback or suggestion? Click here.




ElementValue
Catalog62306
NameSTARLINK-32633
Epoch Orbit828
Epoch Day34.98017752
Epoch Year2025
RAAN249.8668
Inclination53.1595
Eccentricity9.62E-05
Argument of Perigee87.8039
Mean Anonmoly272.3076
Mean Motion15.3961967
Decay Rate2.156E-05
L11 62306U 24239F 25034.98017752 .00002156 00000+0 63858-4 0 9997
L22 62306 53.1595 249.8668 0000962 87.8039 272.3076 15.39619670 8284



Live tracking and technical data element details for STARLINK-32633 (NORAD 62306). STARLINK-32633 can be tracked NOW for your location showing map with azimuth and elevation plus other details from your city location.







IsCatalogInMostPopularTable: catalog: 62306, numindb: 11
Update: records affected: 1



GetName: 62306 STARLINK-32633

Hit Count: updated at: Sun, 18 May 2025 23:30:21 GMT